Temp
-12 -12 -12 -12 -12 -12 -12 -12 -13 -13 -13 -13 -13 -14 -15 -15 -15 -16 -16 -16 -16 -16 -16 -16 -16 -16 -16 -16 -16 -16 -16 -16 -16 -16 -16 -16 -16 -16 -16 -16 -16 -16 -15 -15 -15 -15 -16
-12 -12 -12 -12 -12 -12 -12 -12 -13 -13 -13 -13 -14 -14 -15 -15 -16 -16 -16 -16 -16 -16 -16 -16 -16 -16 -17 -17 -17 -16 -16 -16 -16 -17 -17 -17 -16 -16 -17 -16 -16 -16 -16 -15 -16 -16 -15
-13 -12 -12 -12 -12 -12 -12 -12 -13 -13 -13 -13 -14 -15 -15 -15 -15 -16 -16 -16 -16 -16 -16 -16 -16 -17 -17 -17 -17 -17 -16 -16 -16 -16 -17 -16 -16 -16 -16 -16 -16 -16 -15 -15 -15 -15 -15
-13 -13 -12 -12 -12 -12 -12 -13 -13 -13 -13 -13 -14 -15 -15 -15 -15 -16 -16 -16 -16 -16 -16 -16 -16 -17 -17 -16 -17 -18 -17 -16 -17 -17 -17 -16 -16 -16 -16 -16 -16 -16 -16 -15 -15 -15 -15
-13 -13 -13 -13 -12 -13 -13 -13 -13 -13 -13 -13 -14 -15 -15 -15 -16 -16 -16 -16 -16 -16 -16 -16 -17 -17 -17 -17 -18 -17 -17 -17 -17 -17 -17 -16 -16 -17 -17 -16 -16 -16 -16 -15 -15 -15 -15
-13 -13 -13 -13 -13 -13 -13 -13 -13 -13 -13 -14 -15 -15 -15 -15 -16 -16 -16 -16 -16 -17 -17 -17 -17 -17 -17 -17 -17 -17 -17 -17 -17 -17 -16 -16 -16 -16 -17 -16 -16 -15 -16 -15 -15 -15 -14
-13 -14 -14 -13 -13 -13 -13 -13 -13 -13 -13 -14 -15 -15 -15 -15 -16 -16 -16 -16 -17 -16 -17 -17 -17 -17 -17 -17 -17 -17 -17 -17 -17 -17 -16 -17 -17 -17 -17 -17 -16 -16 -16 -16 -16 -15 -15
-13 -13 -14 -14 -13 -13 -13 -13 -13 -13 -13 -14 -15 -15 -15 -16 -16 -16 -16 -17 -16 -17 -17 -17 -17 -17 -17 -17 -17 -17 -17 -17 -17 -17 -17 -17 -17 -17 -16 -16 -16 -15 -15 -15 -15 -15 -15
-13 -13 -14 -14 -14 -14 -13 -13 -14 -13 -14 -14 -15 -15 -15 -16 -16 -16 -16 -17 -17 -17 -17 -17 -17 -16 -16 -16 -16 -17 -17 -17 -17 -17 -17 -16 -16 -16 -16 -16 -16 -16 -15 -15 -16 -16 -15
-13 -13 -14 -14 -14 -14 -13 -13 -14 -14 -14 -14 -15 -15 -15 -16 -16 -16 -16 -16 -17 -17 -16 -17 -16 -16 -16 -16 -16 -17 -17 -17 -17 -17 -17 -17 -17 -17 -16 -16 -16 -15 -16 -15 -16 -16 -16
-14 -14 -14 -14 -14 -14 -14 -13 -14 -14 -14 -14 -15 -15 -15 -16 -16 -16 -16 -16 -16 -17 -17 -16 -16 -16 -16 -16 -16 -16 -16 -16 -17 -17 -16 -16 -16 -16 -16 -16 -15 -15 -15 -15 -16 -16 -16
-14 -15 -14 -14 -14 -14 -14 -14 -14 -14 -14 -14 -15 -15 -16 -16 -16 -16 -16 -16 -16 -16 -16 -16 -16 -16 -16 -16 -16 -16 -16 -16 -16 -16 -16 -16 -16 -16 -16 -15 -15 -15 -15 -15 -15 -15 -15
-15 -16 -15 -15 -15 -14 -14 -14 -14 -14 -14 -15 -15 -15 -16 -16 -15 -16 -16 -16 -16 -16 -16 -16 -16 -16 -16 -16 -16 -15 -16 -16 -16 -16 -16 -16 -15 -15 -15 -15 -15 -15 -15 -15 -15 -15 -15
-17 -17 -16 -15 -15 -14 -14 -14 -14 -14 -15 -15 -15 -16 -16 -15 -15 -15 -16 -16 -16 -16 -16 -16 -16 -16 -15 -16 -16 -15 -15 -15 -16 -15 -16 -16 -16 -15 -15 -15 -15 -15 -15 -15 -15 -15 -15
-19 -17 -16 -16 -15 -14 -14 -14 -14 -15 -15 -15 -15 -16 -15 -15 -15 -15 -16 -16 -16 -16 -15 -15 -15 -15 -15 -15 -15 -15 -15 -15 -15 -15 -15 -15 -15 -15 -15 -15 -15 -15 -15 -15 -15 -15 -15
-18 -17 -17 -16 -15 -15 -14 -14 -15 -15 -15 -15 -16 -16 -15 -15 -15 -15 -16 -16 -16 -15 -15 -15 -15 -15 -15 -15 -15 -15 -15 -15 -15 -15 -15 -15 -15 -15 -15 -15 -15 -15 -15 -15 -15 -14 -14
-18 -17 -17 -17 -16 -16 -15 -15 -15 -15 -15 -15 -16 -15 -15 -15 -15 -15 -16 -15 -15 -15 -15 -15 -15 -15 -15 -15 -15 -15 -15 -15 -15 -16 -16 -15 -15 -15 -15 -15 -15 -15 -15 -15 -15 -14 -14
-18 -17 -17 -18 -17 -16 -16 -16 -16 -15 -15 -15 -16 -15 -15 -15 -15 -15 -15 -15 -15 -15 -15 -15 -15 -15 -15 -15 -15 -15 -15 -15 -15 -15 -15 -15 -15 -15 -15 -15 -15 -15 -15 -15 -15 -15 -14
-17 -18 -18 -18 -17 -17 -17 -16 -16 -16 -15 -16 -15 -15 -15 -15 -15 -15 -15 -15 -15 -15 -15 -15 -15 -15 -15 -15 -15 -15 -15 -15 -15 -15 -15 -15 -15 -15 -15 -15 -15 -15 -15 -15 -15 -15 -15
-18 -18 -18 -18 -18 -17 -17 -17 -16 -16 -16 -16 -16 -15 -15 -15 -15 -15 -15 -15 -15 -15 -15 -15 -15 -15 -16 -16 -15 -15 -15 -15 -15 -15 -15 -15 -15 -15 -15 -15 -15 -15 -15 -15 -15 -15 -15
-18 -19 -18 -18 -18 -18 -18 -17 -16 -16 -16 -16 -15 -15 -15 -15 -15 -15 -15 -15 -15 -15 -15 -15 -15 -15 -15 -15 -16 -15 -15 -15 -15 -15 -15 -15 -15 -15 -15 -15 -15 -15 -15 -15 -15 -15 -15
-18 -18 -18 -18 -18 -18 -18 -17 -17 -16 -16 -16 -15 -15 -15 -15 -15 -15 -15 -15 -15 -15 -15 -15 -15 -15 -15 -15 -15 -15 -15 -15 -15 -15 -15 -15 -15 -15 -15 -15 -15 -15 -15 -15 -15 -15 -15
-19 -18 -18 -19 -19 -18 -18 -17 -17 -16 -16 -15 -15 -15 -15 -15 -15 -15 -15 -15 -15 -15 -15 -15 -15 -15 -15 -15 -15 -15 -15 -15 -15 -15 -15 -15 -15 -15 -15 -15 -15 -15 -15 -15 -15 -15 -15
-19 -18 -19 -19 -19 -19 -18 -17 -17 -16 -16 -16 -16 -15 -15 -15 -15 -15 -15 -15 -15 -15 -15 -15 -15 -15 -15 -15 -14 -14 -14 -14 -15 -15 -15 -15 -15 -15 -15 -15 -15 -15 -15 -15 -16 -16 -16
-19 -19 -19 -19 -19 -18 -18 -17 -17 -16 -16 -16 -16 -15 -15 -15 -16 -15 -15 -15 -15 -15 -15 -15 -15 -15 -15 -14 -14 -14 -14 -14 -14 -15 -15 -15 -15 -15 -15 -15 -15 -15 -15 -16 -16 -16 -16
-19 -19 -19 -19 -19 -18 -17 -17 -17 -16 -16 -15 -15 -16 -16 -16 -15 -15 -15 -15 -15 -15 -15 -15 -15 -15 -15 -14 -14 -14 -14 -14 -14 -14 -15 -15 -15 -15 -16 -16 -15 -15 -16 -16 -16 -15 -17
-19 -19 -19 -19 -19 -18 -17 -17 -17 -16 -16 -15 -15 -16 -16 -15 -15 -15 -15 -16 -15 -15 -15 -15 -15 -15 -14 -14 -14 -14 -14 -14 -14 -14 -15 -15 -15 -15 -15 -15 -15 -16 -16 -16 -16 -16 -16
-19 -19 -19 -19 -19 -18 -18 -17 -17 -16 -16 -16 -16 -15 -16 -15 -15 -15 -15 -15 -15 -15 -15 -15 -15 -15 -14 -14 -14 -14 -14 -14 -14 -14 -14 -15 -15 -16 -16 -16 -15 -16 -17 -17 -17 -17 -17
-19 -19 -19 -20 -19 -18 -18 -17 -17 -16 -17 -17 -16 -16 -16 -15 -16 -15 -15 -15 -15 -15 -15 -15 -15 -15 -15 -15 -14 -14 -14 -14 -14 -14 -15 -15 -16 -16 -16 -16 -16 -17 -17 -17 -17 -17 -17
Height
5766 5768 5771 5773 5774 5771 5772 5771 5768 5765 5763 5758 5755 5753 5752 5750 5748 5746 5746 5745 5746 5747 5748 5749 5748 5750 5750 5751 5753 5755 5758 5760 5762 5764 5767 5771 5776 5780 5783 5787 5789 5792 5795 5797 5798 5800 5802
5759 5761 5763 5766 5767 5766 5766 5766 5762 5760 5758 5754 5752 5750 5749 5746 5744 5742 5741 5742 5743 5743 5745 5746 5747 5748 5749 5751 5753 5755 5757 5761 5763 5766 5769 5774 5777 5778 5781 5786 5791 5794 5796 5797 5799 5801 5802
5750 5753 5755 5758 5759 5759 5759 5761 5757 5755 5754 5750 5748 5746 5745 5743 5740 5738 5738 5739 5740 5741 5741 5743 5745 5747 5748 5751 5753 5755 5758 5762 5764 5769 5772 5775 5777 5782 5786 5789 5792 5794 5797 5798 5800 5801 5804
5739 5743 5747 5749 5751 5752 5752 5755 5752 5750 5748 5745 5744 5743 5741 5739 5736 5734 5735 5736 5737 5738 5739 5740 5744 5744 5745 5749 5751 5754 5759 5761 5766 5769 5773 5776 5778 5782 5786 5789 5793 5796 5797 5797 5799 5802 5804
5728 5733 5737 5741 5743 5743 5746 5749 5747 5746 5743 5741 5740 5739 5738 5735 5732 5731 5732 5733 5735 5736 5737 5739 5742 5741 5743 5747 5750 5755 5758 5762 5767 5770 5772 5775 5778 5782 5786 5790 5794 5796 5797 5799 5800 5801 5804
5718 5723 5728 5733 5736 5736 5739 5742 5741 5741 5739 5737 5736 5736 5734 5732 5729 5730 5731 5732 5733 5735 5736 5738 5739 5742 5743 5746 5750 5755 5758 5763 5768 5771 5775 5778 5779 5784 5787 5791 5793 5794 5797 5799 5800 5803 5803
5705 5711 5718 5723 5728 5729 5732 5735 5735 5735 5735 5733 5732 5733 5731 5729 5728 5729 5730 5731 5734 5735 5735 5737 5738 5739 5743 5746 5750 5755 5761 5764 5768 5772 5776 5779 5781 5784 5788 5791 5793 5795 5797 5798 5800 5801 5801
5691 5699 5708 5714 5719 5721 5726 5729 5731 5730 5731 5729 5729 5730 5729 5727 5728 5729 5730 5731 5732 5734 5735 5737 5739 5742 5745 5748 5751 5755 5761 5767 5770 5773 5776 5781 5783 5786 5789 5791 5792 5794 5795 5798 5799 5799 5801
5675 5685 5695 5704 5710 5714 5719 5722 5725 5725 5726 5726 5726 5727 5726 5725 5727 5728 5729 5730 5731 5734 5736 5738 5741 5744 5747 5750 5753 5756 5763 5768 5771 5774 5777 5780 5783 5785 5787 5789 5791 5793 5794 5797 5799 5799 5799
5658 5671 5682 5693 5699 5706 5712 5716 5718 5719 5721 5721 5723 5724 5724 5725 5726 5727 5729 5731 5734 5736 5739 5742 5743 5746 5749 5751 5755 5758 5762 5767 5771 5774 5776 5779 5781 5783 5786 5789 5791 5793 5792 5794 5796 5797 5797
5640 5654 5668 5681 5689 5697 5704 5709 5712 5714 5717 5717 5719 5721 5722 5724 5726 5727 5731 5733 5736 5738 5742 5745 5747 5749 5751 5754 5757 5759 5763 5767 5771 5774 5777 5781 5782 5784 5786 5789 5790 5792 5792 5792 5793 5793 5794
5624 5639 5653 5667 5678 5688 5696 5702 5705 5708 5711 5713 5715 5718 5720 5723 5726 5729 5732 5735 5738 5742 5744 5746 5748 5751 5753 5756 5759 5761 5764 5768 5770 5773 5776 5779 5781 5783 5786 5787 5789 5790 5790 5790 5791 5791 5791
5603 5622 5638 5654 5665 5677 5686 5694 5698 5701 5705 5709 5711 5715 5718 5722 5726 5730 5733 5737 5740 5742 5746 5749 5751 5753 5756 5758 5761 5763 5766 5768 5771 5773 5775 5777 5779 5782 5784 5785 5786 5788 5788 5789 5789 5788 5788
5589 5607 5624 5639 5654 5665 5676 5685 5690 5695 5699 5705 5707 5712 5716 5721 5725 5730 5734 5739 5741 5744 5747 5749 5752 5755 5757 5759 5762 5764 5766 5768 5771 5772 5773 5775 5778 5780 5782 5783 5784 5785 5785 5786 5785 5786 5786
5573 5591 5608 5625 5641 5654 5666 5674 5682 5688 5693 5699 5703 5707 5714 5719 5724 5729 5735 5738 5742 5745 5749 5751 5754 5756 5758 5760 5762 5764 5765 5767 5769 5771 5772 5773 5776 5778 5779 5780 5782 5782 5782 5784 5784 5784 5783
5561 5582 5596 5611 5627 5643 5654 5663 5674 5680 5687 5693 5699 5704 5711 5717 5722 5728 5734 5738 5742 5746 5749 5752 5754 5756 5757 5759 5760 5762 5763 5765 5767 5768 5769 5771 5773 5774 5776 5777 5778 5779 5781 5782 5782 5782 5781
5554 5574 5591 5603 5615 5630 5644 5653 5665 5672 5681 5686 5693 5699 5708 5714 5721 5727 5732 5738 5742 5746 5749 5752 5753 5754 5755 5756 5758 5759 5761 5763 5764 5765 5767 5769 5771 5773 5775 5776 5777 5779 5780 5781 5781 5781 5780
5545 5567 5584 5596 5605 5621 5634 5644 5657 5665 5674 5681 5688 5696 5704 5711 5718 5724 5731 5737 5741 5745 5748 5751 5752 5751 5752 5753 5754 5756 5758 5760 5762 5764 5765 5767 5769 5771 5773 5775 5776 5777 5778 5779 5779 5779 5778
5538 5558 5575 5589 5602 5614 5625 5637 5647 5659 5668 5676 5685 5693 5701 5708 5716 5723 5730 5736 5740 5744 5747 5749 5749 5750 5750 5750 5752 5753 5755 5758 5760 5762 5764 5767 5768 5770 5772 5775 5775 5776 5776 5776 5776 5775 5775
5530 5552 5572 5586 5599 5609 5622 5632 5642 5653 5661 5670 5681 5688 5696 5705 5714 5721 5728 5734 5739 5743 5746 5747 5748 5748 5749 5749 5750 5751 5753 5756 5758 5761 5763 5765 5767 5769 5771 5771 5772 5773 5773 5773 5773 5772 5771
5529 5550 5569 5583 5595 5606 5617 5627 5638 5647 5656 5666 5676 5684 5695 5703 5711 5719 5725 5732 5737 5742 5744 5746 5747 5747 5748 5748 5749 5750 5752 5754 5757 5760 5762 5763 5765 5766 5767 5768 5769 5769 5770 5770 5769 5768 5767
5529 5550 5566 5580 5592 5603 5614 5624 5633 5642 5651 5662 5673 5682 5691 5703 5710 5717 5723 5730 5736 5740 5743 5744 5745 5746 5746 5747 5748 5748 5750 5752 5755 5757 5759 5761 5763 5764 5764 5765 5765 5765 5766 5765 5764 5762 5761
5531 5551 5565 5578 5590 5602 5611 5621 5630 5638 5649 5659 5670 5680 5690 5699 5706 5712 5721 5729 5734 5737 5740 5742 5744 5745 5745 5746 5747 5748 5749 5751 5754 5755 5757 5758 5759 5760 5760 5760 5759 5760 5762 5759 5757 5756 5753
5535 5552 5565 5578 5589 5599 5609 5618 5627 5636 5646 5658 5669 5678 5687 5696 5703 5712 5719 5725 5730 5734 5737 5739 5741 5743 5744 5744 5745 5746 5748 5749 5750 5752 5753 5755 5755 5755 5755 5755 5751 5757 5755 5752 5749 5747 5745
5541 5554 5566 5577 5587 5597 5607 5617 5625 5634 5644 5655 5666 5675 5684 5692 5702 5707 5714 5721 5726 5731 5734 5736 5739 5740 5741 5742 5743 5743 5745 5747 5747 5749 5749 5750 5750 5749 5748 5748 5746 5747 5748 5745 5740 5739 5738
5544 5556 5567 5577 5586 5597 5607 5615 5624 5632 5642 5652 5663 5672 5681 5690 5698 5704 5711 5718 5722 5727 5730 5733 5735 5736 5738 5739 5740 5740 5741 5742 5742 5743 5744 5743 5742 5742 5741 5738 5736 5738 5739 5736 5731 5727 5728
5546 5557 5568 5577 5587 5597 5606 5614 5622 5631 5640 5650 5661 5670 5678 5687 5694 5700 5707 5714 5719 5722 5726 5728 5730 5732 5733 5734 5735 5736 5736 5737 5737 5737 5738 5736 5734 5733 5732 5729 5727 5729 5727 5725 5721 5721 5714
5549 5559 5569 5577 5587 5597 5606 5614 5622 5630 5640 5649 5659 5666 5675 5683 5690 5696 5703 5708 5714 5718 5720 5722 5725 5727 5728 5729 5730 5731 5730 5731 5731 5731 5730 5729 5727 5727 5724 5722 5719 5720 5717 5714 5710 5706 5703
5552 5561 5571 5580 5589 5597 5606 5614 5621 5630 5638 5647 5655 5664 5671 5678 5686 5692 5698 5703 5707 5709 5713 5716 5719 5721 5722 5723 5723 5723 5724 5724 5724 5723 5722 5720 5719 5717 5716 5715 5711 5707 5703 5700 5698 5694 5691
Wind_Speed
45 42 43 44 44 48 41 43 43 40 43 36 33 27 25 28 28 22 23 20 20 17 15 15 14 19 11 12 15 16 16 16 15 18 17 17 26 31 30 26 23 22 20 11 7 6 7
46 44 42 43 45 48 42 43 42 41 42 34 30 26 27 23 23 27 21 20 19 19 19 17 15 15 11 14 13 15 17 15 18 17 24 29 32 28 22 21 22 12 5 4 2 1 3
47 44 42 42 46 48 46 43 42 42 40 34 30 25 25 28 25 25 18 18 19 18 18 16 14 7 6 9 12 14 16 20 20 20 30 32 28 27 26 22 19 15 5 2 4 5 5
49 47 43 43 45 49 45 44 43 43 39 36 29 25 26 25 26 18 17 19 19 16 14 16 11 13 15 12 14 15 22 25 22 32 27 31 26 27 20 14 13 12 3 2 5 10 11
51 49 45 45 44 48 45 45 42 44 38 35 26 25 25 26 20 15 15 15 14 13 13 13 13 6 8 14 17 22 29 26 32 33 29 26 23 22 12 8 8 13 10 8 11 13 12
54 50 46 45 45 46 46 44 42 42 37 32 23 24 25 20 13 12 10 11 10 11 12 11 10 12 15 19 20 27 33 32 34 31 24 23 20 21 17 11 10 9 15 11 10 12 13
58 53 49 46 46 46 45 43 42 38 35 27 21 21 21 15 13 12 12 11 11 12 13 13 16 17 19 19 22 26 29 23 35 31 24 21 17 13 12 11 12 21 17 16 14 17 17
61 55 52 46 45 44 44 42 39 34 30 23 20 19 17 13 12 12 17 11 12 14 17 18 18 15 13 18 24 28 32 33 33 29 18 16 19 15 14 19 20 25 21 15 19 17 12
65 60 55 50 45 44 43 41 37 30 25 22 18 19 15 11 14 12 10 13 15 19 23 21 19 17 17 17 18 23 27 34 33 30 23 20 19 22 25 27 23 21 24 18 11 9 8
70 63 57 53 47 46 43 41 35 25 24 21 17 20 12 8 7 12 16 18 20 21 20 18 18 17 18 18 20 21 23 33 32 31 28 21 21 25 27 24 22 21 20 21 14 13 13
75 66 60 55 49 47 43 39 32 22 25 20 17 21 13 9 14 18 21 20 21 22 21 20 19 18 19 20 20 21 24 26 30 22 21 15 19 23 23 22 21 19 19 15 14 15 18
79 69 63 57 51 49 44 39 29 23 26 20 17 21 15 18 20 23 23 24 24 24 19 21 20 19 19 19 19 18 19 19 17 16 18 17 13 20 22 17 15 14 15 15 15 16 19
76 70 65 60 54 49 45 37 29 27 26 21 21 22 22 25 27 26 26 25 25 23 22 20 19 19 18 16 14 13 13 13 14 15 15 16 14 17 19 17 16 17 17 16 18 19 20
75 67 65 60 54 48 44 39 30 30 27 25 26 27 29 31 30 28 26 24 23 19 21 21 19 17 15 15 13 12 11 13 14 13 15 16 16 18 18 18 17 16 16 17 19 20 20
78 75 72 64 56 49 46 41 34 33 28 27 32 34 35 36 33 29 27 24 23 21 21 19 17 14 12 12 11 12 12 14 14 16 17 17 16 15 15 16 16 16 16 14 12 12 12
77 78 76 67 59 54 48 41 38 35 32 28 38 39 41 38 34 31 28 25 24 22 20 17 14 13 12 12 13 13 13 13 14 14 16 16 15 13 12 12 12 11 10 8 7 7 4
67 74 73 68 64 55 49 43 42 38 36 34 44 45 44 39 36 34 31 28 23 21 17 14 13 12 13 16 17 17 15 14 14 14 17 15 15 14 13 12 12 11 9 7 5 5 5
80 79 76 67 60 57 51 46 44 41 39 42 48 48 46 41 39 36 33 30 22 20 17 12 8 8 10 11 12 14 15 14 14 15 15 13 16 15 13 13 12 10 9 8 7 8 9
80 78 70 63 59 55 50 47 44 44 38 47 51 51 47 43 41 38 36 32 25 19 15 8 6 6 9 10 13 16 16 15 15 16 15 15 15 16 15 14 12 12 10 9 10 11 11
82 73 64 60 54 50 47 45 45 44 41 51 55 54 50 44 41 39 37 32 25 20 13 9 6 6 9 12 15 16 17 18 17 16 15 17 15 15 15 15 15 13 13 14 15 16 17
71 67 60 56 51 47 45 43 45 43 44 53 59 55 48 44 42 41 38 32 26 19 14 10 5 5 9 10 13 15 18 19 18 17 17 17 17 17 16 16 16 17 17 19 21 21 23
66 63 58 52 47 46 44 42 44 43 46 55 60 54 49 43 42 41 39 33 26 20 15 10 5 4 6 8 10 13 17 19 19 18 19 20 19 19 20 19 20 21 21 23 25 27 28
67 60 54 48 47 46 42 43 43 42 49 56 61 55 48 46 44 43 38 31 26 22 17 13 8 6 5 8 9 12 15 18 19 21 22 22 23 24 25 25 27 27 24 28 30 31 33
59 55 49 47 42 43 42 42 41 40 50 55 60 54 49 47 46 41 37 33 30 25 21 17 13 10 9 8 11 14 15 18 20 21 22 24 27 30 30 31 35 28 29 32 36 37 36
55 50 44 40 41 42 39 40 39 41 51 56 58 55 50 47 44 43 40 34 32 28 24 21 18 15 14 13 12 13 16 17 18 19 23 26 29 32 34 35 37 36 33 37 40 40 38
50 44 40 39 38 39 39 38 37 42 52 57 56 54 51 47 45 43 40 35 33 30 27 25 23 21 19 18 18 16 17 17 21 22 23 25 30 34 37 40 42 40 38 41 44 46 42
43 40 38 40 38 37 35 36 37 43 54 55 54 52 50 47 46 44 41 36 35 33 31 30 28 26 24 24 23 22 23 22 22 23 25 29 32 34 37 42 44 43 44 44 47 47 50
40 37 31 35 35 36 34 34 37 43 51 52 51 51 49 47 45 44 41 38 36 36 35 34 32 30 29 29 29 28 29 28 28 28 28 31 34 36 39 42 45 43 45 46 48 49 50
37 34 32 36 31 34 30 31 36 41 43 45 48 51 49 46 45 44 41 40 39 39 38 38 36 34 34 34 34 34 34 33 33 35 34 37 36 39 41 41 43 46 47 48 48 48 48
Wind_Direction
263 266 267 271 277 282 291 296 305 315 319 316 306 291 287 290 289 284 286 261 251 249 248 261 267 252 239 207 198 200 198 206 188 173 169 177 164 165 174 183 188 212 231 215 183 72 51
262 261 263 267 273 280 288 293 301 311 316 313 299 288 287 291 288 290 273 257 246 249 251 257 245 249 242 213 204 200 199 195 179 166 157 151 151 167 161 174 192 182 152 170 144 269 61
257 258 259 263 269 274 283 289 298 309 312 309 290 285 282 290 289 283 263 248 245 247 251 233 243 242 203 204 202 197 192 175 174 158 147 163 165 175 190 192 203 187 181 284 239 246 235
252 253 259 259 264 270 278 285 295 303 311 311 283 285 286 287 289 266 252 249 248 246 230 229 231 225 200 185 193 187 179 178 166 163 163 173 179 183 179 173 160 169 108 204 226 170 180
251 251 254 257 258 267 272 280 289 298 307 306 280 283 282 290 282 251 252 247 244 226 223 226 227 223 182 179 193 189 179 174 165 159 173 174 177 174 151 142 182 205 203 197 172 163 178
250 249 252 254 255 263 267 276 286 295 303 297 276 280 283 286 252 248 237 225 205 203 210 222 218 187 181 180 183 190 182 174 167 171 181 197 172 189 167 182 228 229 170 176 190 181 197
249 246 249 249 251 258 263 270 282 290 298 284 274 277 279 275 228 227 213 217 209 212 209 190 178 174 177 178 170 191 185 197 171 175 186 162 171 185 157 169 183 163 176 185 195 202 203
247 246 246 246 249 254 258 265 278 288 289 269 273 271 262 246 236 234 237 217 209 184 169 154 146 146 156 177 184 195 191 183 179 180 175 196 206 205 200 187 195 184 195 196 216 219 219
244 242 242 243 244 249 253 261 275 280 276 260 269 254 249 233 240 242 213 183 171 163 152 147 143 143 146 154 175 189 194 186 188 192 195 209 215 215 200 196 195 199 214 205 210 234 242
241 239 237 239 238 243 249 256 265 264 263 253 254 240 236 191 212 178 165 155 151 150 147 144 144 147 151 160 164 173 186 194 197 202 210 227 201 190 187 192 196 209 212 201 213 239 262
235 233 233 233 233 238 243 250 256 253 252 247 251 223 210 195 177 159 159 155 153 151 149 146 149 147 148 151 158 168 178 190 202 213 204 191 195 191 189 206 222 224 225 224 234 252 269
229 225 227 227 227 233 237 245 240 243 242 238 240 206 188 178 166 161 159 156 155 153 151 153 154 158 158 159 160 160 164 170 174 183 188 196 205 214 220 220 213 218 225 240 251 258 265
221 218 218 219 218 226 231 235 232 229 232 227 217 192 179 172 161 159 159 162 163 162 158 160 160 162 167 167 169 171 173 181 187 195 199 214 218 211 215 223 225 226 231 239 250 262 274
217 209 205 209 210 215 223 226 222 221 219 220 201 183 178 168 163 165 169 171 170 168 169 165 165 171 170 173 183 193 192 198 203 210 217 223 231 226 225 232 235 239 245 253 261 270 277
201 199 194 197 202 209 215 217 214 215 208 215 191 181 176 169 169 172 176 178 176 179 174 173 176 181 183 190 195 204 213 217 217 220 224 226 225 227 230 233 233 235 240 245 255 267 276
195 194 193 191 195 200 205 209 209 207 204 207 185 180 173 172 176 177 180 182 181 181 181 182 190 207 216 223 230 233 234 232 230 228 227 226 222 221 212 207 206 215 217 230 246 273 283
192 194 194 191 190 194 199 201 204 199 201 196 183 179 175 177 180 181 182 183 185 185 191 195 210 230 236 237 238 237 233 232 229 218 218 219 204 202 205 208 210 210 215 214 223 252 277
187 190 196 193 188 191 194 196 200 193 198 190 183 177 179 182 184 183 185 184 179 179 189 204 223 244 241 225 221 220 220 223 209 205 213 207 201 204 200 200 208 210 207 217 248 276 287
182 192 194 192 188 190 190 194 190 193 194 188 183 178 182 186 186 185 188 189 189 193 206 224 251 248 230 215 214 214 216 215 211 207 208 209 203 202 199 203 214 218 225 254 269 281 288
183 190 190 188 190 188 189 188 188 191 191 187 184 181 185 188 187 189 192 194 197 199 210 235 253 239 227 218 215 214 213 209 206 207 208 208 203 204 214 214 223 231 241 264 275 279 283
184 184 185 186 188 186 188 186 190 189 190 187 185 185 189 189 188 193 195 197 203 204 219 235 263 260 220 218 215 215 210 207 206 213 215 214 212 217 224 228 236 237 249 263 273 278 283
177 181 182 185 184 185 185 189 188 189 190 187 188 186 190 187 191 199 198 201 204 208 221 238 265 283 234 224 218 211 207 207 212 218 219 222 226 230 232 239 246 249 258 268 273 279 283
172 179 181 183 185 187 186 189 187 189 190 187 189 189 188 190 196 201 201 204 206 215 226 240 250 266 275 240 232 225 221 224 227 229 230 232 235 239 242 248 254 256 268 273 276 278 283
173 178 181 185 185 187 187 188 189 188 190 188 191 190 190 194 199 204 206 207 211 217 226 239 252 263 267 267 244 239 239 238 240 242 244 245 246 249 253 256 260 267 268 276 280 281 285
174 177 180 182 185 184 186 189 189 188 191 189 192 192 194 197 201 207 210 212 219 224 231 240 252 262 270 277 276 266 257 254 255 257 256 257 257 260 262 264 268 269 272 275 278 281 289
173 177 179 185 177 183 185 187 188 190 193 190 192 195 198 200 204 211 216 217 225 231 238 246 252 262 269 274 279 281 279 278 267 265 262 261 260 259 264 267 270 273 274 276 280 284 289
172 178 183 185 180 182 184 187 189 192 194 191 194 198 201 205 208 214 218 221 228 235 242 246 253 260 266 271 275 278 278 276 275 275 268 268 269 268 269 272 277 278 279 281 281 285 286
175 179 181 179 177 179 187 188 190 193 195 194 195 201 203 208 213 218 222 227 232 238 245 249 252 257 262 268 273 278 278 278 281 280 277 276 274 273 272 275 279 282 282 281 282 285 288
180 179 180 175 180 180 181 187 189 189 193 188 199 203 208 210 215 221 226 231 236 241 246 251 256 262 266 270 273 274 278 281 282 280 280 280 279 280 279 282 284 284 283 283 285 286 288